Back to catalog

TELE-X

AliveCommunicationsGEO
NORAD 19919·PAYLOAD·🇸🇪 Sweden

Launched Apr 2, 1989 from Guiana Space Centre

Loading…

TLE

FreshSource: Space-Track

Epoch: Sep 13, 2026, 08:04 UTC

1 19919U 89027A   26256.33648044 -.00000044  00000-0  00000-0 0  9997
2 19919  14.8683 351.6649 0008818 198.9396 187.2337  0.99169702118087

Track TELE-X in real time with AllMySat

Download on the App Store